This demonstration page uses our WeatherBlox Daily Observations layout. Learn more.

Left ArrowRight Arrow

Hourly Observations for September 20, 2022

Temp ( °F °C ) Dew Point ( °F °C ) Humidity (%) Winds ( mph kmh ) Pressure ( in mb ) Visibility ( mi km ) Precip ( " mm )
12:55 am 00:55 Partly Cloudy 74 23.6 63 17.1 67 67 ESE 7 11 29.85 1011 10 16 0.00 0.00
1:55 am 01:55 Mostly Clear 72 22 63 17.3 75 75 SE 3 6 29.85 1011 10 16 0.00 0.00
2:55 am 02:55 Clear 71 21.9 63 17 74 74 ESE 5 7 29.85 1011 10 16 0.00 0.00
3:55 am 03:55 Clear 71 21.7 63 17.1 75 75 ESE 5 7 29.84 1011 10 16 0.00 0.00
4:55 am 04:55 Clear 70 21.1 62 16.9 77 77 ESE 5 7 29.84 1011 10 16 0.00 0.00
5:55 am 05:55 Clear 70 21 62 16.8 77 77 E 5 7 29.84 1010 10 16 0.00 0.00
6:55 am 06:55 Clear 70 21 62 16.6 76 76 E 5 7 29.84 1010 10 16 0.00 0.00
7:55 am 07:55 Sunny 72 22.3 63 17 72 72 Calm 29.85 1011 10 16 0.00 0.00
8:55 am 08:55 Sunny 76 24.7 64 17.9 66 66 SE 3 6 29.85 1011 10 16 0.00 0.00
9:55 am 09:55 Sunny 85 29.2 63 17 48 48 SW 8 13 29.85 1011 10 16 0.00 0.00
10:55 am 10:55 Sunny 89 31.6 62 16.7 41 41 SW 10 17 29.85 1011 10 16 0.00 0.00
11:55 am 11:55 Sunny 93 33.7 62 16.9 37 37 SSW 10 17 29.84 1011 10 16 0.00 0.00
12:55 pm 12:55 Sunny 94 34.5 63 17.2 36 36 S 10 17 29.83 1010 10 16 0.00 0.00
1:55 pm 13:55 Sunny 97 36.1 63 17.2 33 33 SSW 10 17 29.81 1010 10 16 0.00 0.00
2:55 pm 14:55 Sunny 100 37.5 62 16.4 29 29 SSW 15 24 29.79 1009 10 16 0.00 0.00
3:55 pm 15:55 Mostly Sunny 101 38.3 64 17.6 30 30 SW 15 24 29.78 1008 10 16 0.00 0.00
4:55 pm 16:55 Mostly Sunny 101 38.4 63 17.2 29 29 SW 14 22 29.78 1008 10 16 0.00 0.00
5:55 pm 17:55 Mostly Sunny 100 37.8 62 16.7 29 29 SW 13 20 29.78 1009 10 16 0.00 0.00
6:55 pm 18:55 Mostly Sunny 96 35.6 61 16.3 32 32 SSW 8 13 29.79 1009 10 16 0.00 0.00
7:55 pm 19:55 Partly Cloudy 92 33.1 64 17.6 40 40 SSW 7 11 29.79 1009 10 16 0.00 0.00
8:55 pm 20:55 Mostly Clear 89 31.4 64 17.6 44 44 SSW 3 6 29.81 1010 10 16 0.00 0.00
9:55 pm 21:55 Partly Cloudy 84 28.9 64 18 52 52 SSE 3 6 29.82 1010 10 16 0.00 0.00
10:55 pm 22:55 Mostly Cloudy 86 30 63 17.4 47 47 WSW 6 9 29.85 1011 10 16 0.00 0.00
11:55 pm 23:55 Mostly Cloudy 82 28 64 17.5 53 53 Calm 29.86 1011 10 16 0.00 0.00

Powered by AerisWeather